GFSGBSN_700_temp_174.txt.gz
Temp
-1 -1 -2 -2 -3 -4 -4 -4 -3 -3 -3 -2 -2 -2 -1 -1 -0 0 1 2 3 4 4 5 5 6 6 6 7 7 7 8 8 8 8 9 9 9 9 9 9 9 9 9 9 9 8
-1 -1 -1 -2 -2 -3 -3 -3 -2 -2 -2 -2 -2 -2 -1 -0 0 1 2 2 3 4 4 5 5 5 6 6 6 7 7 7 8 8 8 8 9 8 8 8 8 8 8 8 8 8 8
-0 -1 -0 -1 -1 -2 -2 -2 -2 -2 -2 -2 -2 -1 -1 0 1 1 2 3 3 4 4 5 5 5 5 6 6 6 7 7 7 7 8 8 8 8 7 7 7 7 7 8 8 8 8
-0 -0 -1 -0 -0 -0 -1 -2 -2 -2 -2 -2 -1 -1 0 0 1 1 2 3 3 3 4 4 5 5 6 6 6 6 6 7 7 7 7 7 7 7 7 7 7 7 7 7 7 7 7
0 0 -0 -0 -0 0 0 -1 -1 -1 -1 -1 -1 -1 0 0 1 1 2 2 3 3 4 4 4 5 5 5 5 6 6 6 6 6 6 7 7 7 6 7 7 7 6 6 6 5 5
0 0 0 0 -0 -0 -0 -0 -0 -0 -0 -1 -1 -1 -0 0 0 1 1 2 2 3 3 4 4 5 4 5 5 5 5 6 6 6 6 6 6 6 7 6 6 5 5 5 5 4 5
2 1 1 0 0 0 -0 -0 -0 0 0 -0 -0 -0 0 0 1 1 1 2 2 2 3 3 4 5 5 5 5 5 5 5 6 6 6 6 6 6 6 5 5 4 5 5 4 4 5
3 2 2 1 1 1 0 0 0 0 0 1 1 1 0 0 1 1 1 2 2 3 3 3 3 4 4 4 5 5 5 5 5 6 5 5 5 5 5 4 4 4 4 4 4 4 4
3 2 2 2 2 2 1 1 1 1 1 1 1 1 2 2 1 2 2 2 2 2 3 3 3 3 3 4 4 4 4 4 4 5 5 4 4 4 4 4 4 4 3 3 2 4 4
3 2 2 2 2 2 2 2 2 1 1 1 1 1 2 2 2 2 2 2 3 3 3 2 2 3 3 3 3 4 4 4 4 4 4 4 4 4 4 4 3 3 3 2 2 2 1
3 3 3 2 2 2 2 2 2 2 2 1 1 1 1 2 2 2 2 2 3 3 -0 2 2 2 3 3 3 3 3 4 4 4 3 3 3 3 3 3 2 3 2 2 2 1 1
3 3 3 3 3 3 2 2 2 2 2 2 2 2 2 2 2 2 2 3 3 3 0 2 2 2 3 3 3 3 3 3 3 3 3 3 3 3 2 2 2 2 2 3 0 -0 -2
3 3 3 3 3 3 3 3 3 2 2 3 2 2 2 3 3 3 3 3 3 2 2 2 2 3 3 3 3 3 3 3 3 3 3 3 3 2 2 2 2 2 2 2 -2 -3 -2
4 4 4 4 3 3 4 3 3 3 3 3 2 3 3 3 3 3 3 3 3 1 1 2 2 2 2 3 3 3 3 3 3 2 2 1 1 2 1 1 1 1 1 1 -5 -5 -3
4 4 4 4 4 4 4 4 4 4 3 3 3 3 3 3 3 3 3 3 2 2 2 2 2 2 2 2 3 3 3 2 2 2 2 2 1 2 1 1 1 0 1 -0 -1 -2 -4
5 4 4 4 4 4 4 4 4 4 4 4 4 3 3 3 3 3 3 3 3 3 2 2 2 2 2 3 3 3 3 2 2 2 1 1 1 1 1 1 1 1 -0 -1 -2 -7 -7
5 5 5 5 5 4 4 5 5 4 4 4 4 4 4 4 4 4 4 3 3 2 2 2 2 2 1 2 2 2 2 2 1 1 1 1 0 1 1 1 1 -0 -1 -1 -1 -2 -6
5 5 5 5 5 5 5 4 5 5 5 4 5 4 4 4 4 4 4 3 3 2 2 2 2 2 2 2 1 1 1 1 1 1 1 0 -0 -0 -1 -0 -1 -1 -1 -2 -2 -3 -3
5 5 5 5 5 5 5 5 5 5 5 5 5 4 4 4 4 4 3 3 3 3 3 2 2 2 2 1 1 1 1 1 1 0 0 -0 -1 -0 -1 -1 0 -0 0 -1 -2 -4 -3
5 5 5 5 5 5 5 5 5 5 5 5 5 5 4 4 4 4 3 3 3 3 3 2 2 2 2 2 1 1 1 0 0 0 -1 -1 -1 -0 0 0 -1 -1 -1 -2 -2 -4 -3
5 5 5 5 5 5 5 5 5 4 5 4 4 4 4 4 4 4 4 3 3 2 2 2 2 2 1 1 0 1 1 1 0 -0 -1 -1 -1 -1 -1 -0 -0 -1 -2 -3 -4 -2 -3
4 4 5 4 5 5 5 5 5 4 4 4 4 4 4 3 3 3 3 3 3 3 3 2 2 2 1 1 0 -1 -1 -1 -2 -1 -2 -2 -2 -3 -1 -0 -1 -1 1 -0 -2 -3 -3
4 4 4 4 4 4 4 5 5 4 4 4 4 4 3 3 3 3 3 2 2 2 2 2 2 2 2 1 1 -0 -1 -2 -2 -2 -3 -4 -4 -4 -3 -2 -3 -1 3 2 1 1 1
4 4 3 4 4 4 4 4 4 4 4 3 3 3 3 4 3 3 3 2 2 2 2 2 2 2 1 1 0 1 0 -0 -1 -2 -3 -4 -5 -6 -4 -3 -4 1 2 1 1 1 0
3 3 3 3 3 3 3 3 3 3 3 3 3 3 3 3 3 3 3 2 2 2 2 2 1 1 0 -0 -0 -0 -0 0 1 0 -0 -2 -5 -5 -5 -5 -1 2 2 2 0 1 0
2 2 2 2 2 2 2 2 2 2 2 2 2 2 2 2 2 2 2 2 2 2 2 2 1 1 -0 -1 -1 -2 -1 -1 -1 0 -0 -1 -3 -5 -5 -6 -4 1 1 -1 -1 -1 -0
1 1 1 2 2 2 1 1 1 1 1 1 1 1 1 1 1 1 0 1 1 1 0 1 1 0 -1 -1 -2 -2 -1 -1 -1 -1 -0 -1 -3 -3 -5 -6 -4 0 -0 -1 -2 -1 -1
0 -0 0 0 1 1 1 1 0 0 0 1 1 1 0 1 1 1 1 1 1 0 -0 -0 -1 0 -0 -1 -2 -1 -2 -2 -2 -2 -1 -1 -1 -3 -5 -6 -5 -0 -1 -1 -1 -1 -2
-0 -1 -1 -1 -1 -1 -0 -0 -0 -0 -0 -0 -0 -0 0 0 1 0 1 1 0 0 1 -0 -1 -1 -2 -2 -2 -3 -3 -2 -2 -3 -1 -2 -0 -1 -2 -0 -1 -1 -1 -2 -2 -3 -3

GFSGBSN_700_temp_180.txt.gz
Temp
-0 -1 -2 -0 -2 -3 -2 -1 -2 -3 -2 -2 -2 -1 -1 -1 -1 0 1 2 3 4 4 5 6 6 6 7 7 8 8 8 9 9 9 9 9 9 10 10 10 10 10 9 9 9 9
-0 -1 -1 -1 -0 -0 -1 -2 -2 -2 -1 -2 -2 -2 -1 -1 -0 1 2 2 3 4 4 5 5 6 6 7 7 8 8 8 9 8 9 9 9 9 9 9 9 9 9 9 9 9 9
0 -0 -1 -1 -1 -2 -3 -2 -2 -2 -2 -2 -2 -2 -1 -0 0 1 1 2 3 4 4 5 5 5 6 7 7 7 8 8 8 8 8 8 9 9 9 9 9 9 9 8 8 8 9
1 0 0 -0 -1 -1 -1 -1 -1 -1 -1 -1 -1 -1 -0 0 1 1 1 2 3 4 4 5 5 6 6 6 7 7 7 7 7 8 8 8 8 8 8 8 8 8 8 8 8 8 8
0 0 -0 -0 -0 -0 -1 -1 -1 -1 -1 -1 -0 -0 -0 0 1 1 1 2 3 4 4 5 5 6 6 6 6 7 7 7 7 7 8 8 8 8 8 7 7 8 8 7 7 7 7
1 0 -0 -0 -0 -0 -1 -1 -1 -0 -0 -0 -0 0 1 1 1 1 1 2 3 3 4 4 5 5 5 6 6 6 6 7 7 7 7 7 7 7 7 7 7 7 7 7 6 7 7
1 1 1 1 0 -0 -0 -0 -0 -0 0 0 1 1 1 1 1 2 2 2 2 3 3 4 4 5 5 5 5 6 6 6 6 6 6 7 7 7 7 6 6 6 6 6 6 6 6
2 1 1 1 1 1 0 0 0 0 0 1 1 1 1 1 1 1 2 2 3 3 4 4 4 4 4 4 5 5 5 5 5 6 6 6 6 6 6 6 5 5 5 5 5 5 4
2 2 1 1 1 1 1 1 1 1 1 1 1 1 2 2 2 2 2 2 3 3 3 3 3 3 4 4 4 5 5 5 5 5 6 6 5 5 5 5 5 5 5 5 4 5 6
2 2 2 2 1 1 1 1 1 1 1 1 1 1 2 2 2 2 2 3 3 3 4 3 3 3 4 4 4 4 5 5 5 5 5 5 5 5 5 5 4 4 4 4 4 4 3
3 3 2 2 2 2 2 2 2 1 2 2 2 2 2 2 3 3 3 3 4 4 -3 3 3 3 4 4 4 4 5 5 5 5 5 5 5 4 4 4 4 4 3 3 3 3 2
3 3 3 3 3 3 2 2 2 2 2 2 2 2 2 2 2 3 3 3 4 4 2 3 3 3 4 4 4 4 4 4 5 4 4 4 4 4 3 3 3 3 3 3 2 1 -2
4 3 3 3 3 3 3 3 3 3 3 3 3 3 3 3 3 3 3 3 4 4 2 2 2 3 3 3 4 4 4 4 4 4 4 3 3 3 3 3 3 2 2 2 -4 -6 -4
4 4 4 4 3 3 3 4 3 3 3 3 3 3 3 3 3 3 3 3 3 2 2 2 2 3 3 3 3 3 3 3 3 3 3 3 3 2 2 2 2 2 2 1 -5 -7 -4
4 4 4 4 4 4 4 4 4 4 4 4 4 4 4 3 4 3 3 3 3 3 2 2 2 2 3 3 3 3 3 3 3 3 3 2 2 2 2 2 1 1 1 1 0 -3 -5
5 4 4 5 4 4 4 4 4 4 4 4 4 4 4 4 4 4 3 3 3 3 3 3 3 3 3 3 3 3 3 3 3 3 2 2 2 2 2 1 1 1 0 -0 -0 -6 -7
4 5 5 5 5 5 5 5 5 5 4 4 4 4 5 5 5 4 4 4 3 3 3 3 3 3 3 3 3 3 3 2 2 2 2 1 1 1 1 1 1 0 -0 -1 -1 -1 -9
4 4 4 5 5 5 5 5 5 5 5 5 5 5 4 4 4 5 4 4 3 3 3 3 3 3 3 2 2 2 2 2 2 1 1 1 0 1 1 0 -0 -1 -1 -1 -1 -2 -2
4 5 5 4 5 5 5 5 5 5 5 5 5 5 5 5 4 4 4 4 3 3 3 3 3 3 2 2 2 2 2 1 1 1 1 0 -0 0 0 -0 0 0 1 0 -1 -2 -2
4 4 4 5 5 4 5 5 5 5 5 5 5 5 5 5 5 4 4 3 3 3 3 2 2 2 2 2 2 2 1 1 1 0 -0 -1 -1 -0 1 1 0 -0 -0 -1 -2 -2 -2
4 4 4 4 4 5 4 4 4 4 5 5 5 5 5 5 4 4 4 4 3 3 3 3 2 2 2 2 2 1 1 1 1 0 -0 -1 -1 -0 -0 -0 -0 0 -1 -2 -3 -2 -3
4 4 4 4 4 4 4 4 4 4 4 4 4 4 4 5 4 4 3 3 3 3 3 2 2 2 1 1 1 1 1 -0 -0 -0 -1 -2 -2 -1 2 2 1 1 1 1 0 -0 -1
4 4 4 4 4 4 4 4 4 4 4 4 4 4 4 3 4 4 4 3 3 3 3 2 2 2 2 1 1 1 1 1 -0 -1 -3 -3 -3 -3 0 0 -0 1 3 2 2 1 0
3 3 3 4 4 4 4 4 4 3 3 3 3 3 3 3 3 3 3 3 3 3 3 2 2 2 1 1 1 1 1 1 1 0 -1 -2 -3 -4 -2 -0 -3 3 2 1 2 1 1
3 3 3 3 3 4 3 3 4 3 3 2 2 2 2 2 2 3 2 2 2 2 2 2 1 1 1 1 0 0 1 1 1 1 -0 -1 -3 -4 -3 -4 0 3 2 1 -0 2 1
2 2 2 1 2 2 2 2 3 3 3 2 2 2 1 2 2 1 2 2 2 1 1 1 1 1 1 0 0 -0 0 1 -0 0 0 -1 -3 -5 -6 -6 -5 2 1 1 -1 -0 1
1 1 1 1 1 1 1 1 1 1 1 1 1 0 0 1 1 1 1 1 1 1 1 1 1 0 -0 -0 -1 -2 -1 -0 -0 0 0 -1 -3 -3 -6 -7 -5 1 -1 -1 -3 -1 -2
-0 0 0 1 0 -0 0 0 1 1 1 1 1 -0 -1 -0 0 0 -0 0 0 1 1 0 -1 0 -0 -1 -1 -1 -1 -1 -1 -1 0 -0 -1 -3 -6 -7 -4 0 -1 -2 -2 -2 -3
-2 -1 -1 -1 -0 -0 -1 -1 -1 -0 -0 -0 0 -1 -1 -1 -0 -0 -0 0 -0 -0 -0 0 0 -1 -3 -2 -2 -2 -2 -2 -1 -2 -1 -2 -0 -1 -1 0 0 -0 -2 -3 -3 -4 -4

GFSGBSN_700_temp_183.txt.gz
Temp
-1 -0 -3 -2 -2 -2 -2 -2 -2 -2 -2 -2 -2 -2 -2 -1 -1 -0 1 2 2 3 4 4 5 5 6 6 7 7 7 8 8 9 9 9 9 10 10 10 10 10 10 10 10 10 10
-1 -1 -1 -2 -1 -2 -2 -2 -2 -2 -2 -2 -2 -2 -1 -1 -1 0 1 2 3 3 4 4 5 5 5 6 7 7 8 8 9 9 9 9 9 9 9 10 9 9 10 10 10 9 9
-0 -1 -1 -1 -1 -1 -2 -2 -2 -2 -1 -1 -1 -1 -1 -1 0 1 2 2 3 3 4 4 5 5 6 6 6 7 7 8 8 8 9 9 9 9 9 9 9 9 9 9 9 9 8
0 -0 -0 -1 -1 -0 -1 -1 -1 -2 -1 -1 -1 -1 -1 -0 1 1 2 2 3 3 4 4 5 5 5 6 6 7 7 7 8 8 8 8 8 8 8 8 8 8 8 8 8 8 8
0 -0 -0 -0 -1 -0 0 -0 -0 -0 -0 -0 -0 0 0 1 1 1 2 2 3 3 4 4 5 5 6 6 6 6 7 7 8 7 7 8 8 8 8 8 8 8 8 8 8 8 8
0 0 -0 -0 -1 -1 -0 -0 -0 0 0 0 1 1 1 1 1 1 2 2 2 3 3 4 5 5 5 5 6 6 7 7 7 7 7 7 7 7 7 7 7 7 7 7 7 7 7
1 1 0 -0 -0 -1 -0 -0 -0 0 0 1 1 1 1 1 2 2 2 2 2 2 3 4 4 5 5 5 6 6 6 6 6 7 7 7 7 7 7 7 7 6 6 6 6 7 7
2 2 1 1 0 0 -0 -0 0 0 1 1 1 1 1 1 2 2 2 2 3 3 4 4 4 4 4 5 5 5 5 6 6 6 6 6 6 6 6 6 6 6 6 6 6 6 6
2 2 2 2 1 1 1 1 0 1 1 1 1 2 2 2 2 2 2 2 3 4 3 3 3 4 4 4 5 5 5 6 6 6 6 6 6 6 6 6 6 6 5 5 5 6 6
2 2 2 2 2 2 1 1 1 1 1 1 1 2 2 2 2 2 2 3 3 4 4 3 3 4 4 4 5 5 5 5 5 5 6 6 6 5 5 5 5 5 5 5 5 4 4
3 3 2 2 2 2 2 2 1 1 2 2 2 2 2 2 3 3 3 3 4 4 -3 3 3 3 4 4 4 5 5 5 5 5 5 6 5 5 5 5 4 4 4 3 3 3 2
3 3 3 3 2 2 2 2 2 2 2 2 2 2 2 2 2 3 3 3 4 4 2 3 3 3 4 4 4 5 5 5 5 5 5 5 4 4 4 4 3 3 3 3 2 1 -3
3 3 3 3 3 3 3 2 2 3 3 3 3 2 2 3 3 3 3 3 4 4 3 3 3 3 4 4 4 4 4 4 4 4 4 4 4 3 3 3 2 2 1 2 -4 -6 -4
3 3 3 3 3 3 3 3 3 3 3 3 3 3 3 3 3 3 3 4 4 3 3 3 3 3 3 3 4 4 4 4 4 3 3 3 3 2 2 2 2 2 1 1 -5 -8 -5
3 3 3 3 4 4 4 4 4 4 3 3 3 4 4 4 4 4 4 4 4 3 3 3 3 3 3 3 3 3 3 3 3 3 3 3 3 2 2 2 1 1 1 1 1 -3 -5
4 4 4 4 4 4 4 4 4 4 4 4 4 4 4 4 4 4 4 4 4 4 3 3 3 3 3 3 3 3 3 3 3 3 3 2 2 2 2 1 1 1 0 0 0 -6 -7
4 4 4 4 4 4 4 4 4 4 5 4 4 4 5 4 4 4 4 4 4 4 3 3 3 3 3 3 3 3 3 3 3 2 2 2 2 2 1 2 1 0 0 -0 -0 -1 -9
4 4 4 4 4 5 4 5 4 4 4 5 5 5 4 4 5 5 5 4 4 3 3 3 3 3 3 3 3 2 2 2 2 2 2 1 1 1 1 1 0 -0 -0 -1 -1 -2 -3
4 4 4 5 5 4 5 5 5 5 5 5 5 5 5 5 5 4 4 4 4 4 3 3 3 2 2 2 2 2 2 2 1 1 1 0 -0 0 1 0 1 0 1 -0 -1 -2 -2
4 4 4 4 5 5 4 5 5 5 5 5 5 5 4 5 5 4 4 4 4 3 3 3 3 2 2 2 2 2 1 1 1 0 -0 -1 -1 -0 1 1 -0 -1 -1 -1 -2 -3 -1
4 4 4 4 4 4 4 4 4 5 5 5 5 4 4 4 4 4 4 4 3 3 3 3 3 3 2 2 1 1 1 1 1 0 -0 -1 -1 -0 1 0 -1 -0 0 -1 -2 -2 -3
4 4 4 4 4 4 4 4 4 4 4 4 4 5 4 4 4 4 4 4 4 3 3 3 3 2 2 2 2 2 2 2 1 1 0 -0 -0 -0 2 2 2 2 2 1 1 -1 -1
3 3 3 4 4 4 4 4 4 4 4 4 3 3 4 4 3 3 3 3 4 3 3 3 2 2 2 1 2 1 1 1 1 1 -1 -2 -2 -2 -0 1 0 1 4 2 2 2 1
3 3 3 3 3 4 4 4 4 4 4 3 3 3 3 3 3 2 3 2 2 2 3 2 2 2 2 1 1 0 0 1 1 0 -0 -1 -2 -4 -2 -1 -4 3 3 3 2 2 1
2 2 2 3 3 3 3 4 4 3 3 3 2 2 2 2 2 2 2 1 2 1 2 2 2 2 1 1 1 -0 0 1 2 1 -1 -2 -4 -4 -4 -4 1 3 2 2 0 1 0
1 1 2 2 2 2 2 2 2 2 2 2 2 1 1 2 2 2 2 2 1 1 1 1 1 1 0 -0 -1 -1 0 1 1 1 1 -1 -4 -5 -6 -5 -5 2 1 -0 -0 -1 -0
-0 -0 0 1 1 1 1 1 1 1 1 1 1 1 1 1 1 1 1 1 1 0 -0 0 0 -0 -0 -1 -2 -2 -1 -1 -0 0 0 -1 -5 -4 -6 -7 -3 1 0 -1 -3 -1 -2
-1 -1 -1 -0 -0 0 0 0 0 1 1 1 0 0 -0 0 1 0 0 0 -0 0 -0 -0 -1 -1 -1 -1 -2 -1 -2 -1 -1 -0 0 0 -0 -2 -6 -7 -4 0 -0 -1 -2 -2 -3
-2 -2 -2 -2 -2 -1 -1 -1 -1 -1 -0 0 0 -1 -1 -1 -0 -0 -0 -0 -0 -1 -0 -0 -1 -1 -1 -1 -1 -2 -2 -3 -1 -2 -1 -2 -0 -0 -1 -0 -0 -1 -1 -3 -3 -4 -4

GFSGBSN_700_temp_186.txt.gz
Temp
-1 -1 -1 -2 -2 -2 -2 -2 -2 -2 -2 -2 -2 -2 -1 -1 -1 -1 -0 1 2 3 3 3 4 4 4 5 5 6 6 6 7 7 8 9 9 10 10 10 10 10 10 10 10 10 10
-1 -1 -1 -1 -2 -2 -1 -2 -2 -2 -1 -1 -1 -1 -1 -1 -1 -0 0 2 2 3 3 3 4 4 4 4 5 5 6 7 6 7 8 8 9 9 9 9 9 9 9 9 9 9 9
-0 -1 -1 -1 -1 -1 -2 -2 -2 -2 -1 -1 -1 -1 -1 -1 -0 0 1 2 2 3 3 3 4 4 4 5 5 6 7 6 7 8 8 8 9 9 9 9 9 9 8 9 9 9 9
1 0 -1 -1 -1 -1 -1 -1 -1 -1 -1 -1 -1 -1 -0 0 1 1 1 2 2 2 3 3 3 4 4 5 5 6 6 7 7 7 7 8 9 9 9 9 9 8 8 8 8 8 8
1 -0 -0 -1 -1 -1 -1 -1 -1 -1 -1 -0 -0 -0 1 1 1 1 2 2 2 3 3 3 4 4 4 5 5 6 6 7 7 7 8 8 8 8 8 8 8 8 8 8 8 8 8
1 0 0 -0 -0 -0 -0 -1 -0 -0 -0 -0 0 1 1 1 2 2 2 2 2 3 3 4 4 4 5 5 5 5 6 6 7 7 7 8 8 7 7 7 7 7 7 7 7 7 7
1 1 1 1 0 0 0 -0 -0 0 0 1 1 1 2 2 2 2 2 3 3 3 3 4 4 5 5 5 5 6 6 6 7 7 7 7 7 7 7 7 7 7 7 7 7 7 7
2 1 1 1 1 0 0 0 0 0 1 1 1 2 2 2 2 3 3 3 3 3 4 4 4 4 4 5 5 6 6 6 6 6 6 6 6 6 6 7 6 6 6 6 6 6 6
2 2 2 1 1 1 1 1 1 1 1 2 1 1 2 2 2 3 3 3 3 4 4 3 3 4 5 5 5 5 5 6 6 6 6 6 6 6 6 6 6 6 6 5 5 6 6
2 2 2 2 2 1 1 1 1 1 1 2 2 2 2 2 3 3 3 3 3 4 4 3 4 4 4 5 5 5 5 6 6 6 6 6 6 6 5 5 5 5 5 5 5 4 4
2 2 2 2 2 2 2 2 2 2 2 2 2 2 2 2 3 3 3 3 3 4 -2 3 4 4 4 5 5 5 5 5 6 6 6 6 5 5 5 5 5 4 4 4 4 4 3
3 2 2 2 2 3 3 2 2 2 2 2 2 2 2 2 2 3 3 3 4 4 3 3 4 4 4 4 5 5 5 5 5 5 5 5 5 5 4 4 4 3 3 3 4 3 -3
3 3 3 3 3 3 3 3 3 3 2 3 3 3 3 3 3 3 3 3 4 4 3 3 4 4 4 4 4 4 5 5 5 5 5 4 5 4 4 3 3 3 2 3 -2 -5 -4
4 4 3 3 3 3 3 3 3 3 3 3 3 3 3 3 3 3 3 4 4 4 4 4 3 4 4 4 4 4 4 4 4 4 4 4 4 3 3 3 3 2 2 1 -5 -8 -6
4 4 4 4 4 4 4 3 3 3 3 4 4 3 4 4 4 4 4 4 4 4 4 3 3 3 4 4 4 4 4 4 3 3 3 3 3 3 3 2 2 1 1 1 1 -3 -6
4 4 4 4 4 4 4 4 4 4 3 4 4 4 4 4 4 4 3 4 4 4 3 3 3 3 3 3 3 3 4 3 3 3 3 3 3 2 2 2 1 1 0 -0 0 -6 -7
4 4 4 4 4 4 4 4 4 4 4 4 4 4 4 4 4 4 4 4 4 4 3 3 3 3 3 3 3 3 3 3 2 2 2 2 1 1 1 2 1 1 -0 -0 -0 -1 -9
4 4 4 5 5 4 4 5 5 5 5 5 4 5 4 4 4 4 4 4 4 4 4 3 3 3 3 3 3 3 3 2 2 2 2 1 1 1 1 1 0 -0 -1 -1 -1 -2 -2
4 4 5 4 5 5 5 4 5 5 5 5 5 5 5 5 5 4 4 4 4 4 3 3 3 3 3 3 2 2 2 2 2 1 1 1 1 1 1 0 0 -0 0 -0 -1 -2 -2
4 4 4 4 4 4 5 5 4 5 5 5 5 5 5 5 5 5 5 4 3 3 3 3 3 3 2 2 2 2 2 2 2 1 1 0 1 1 1 1 0 -0 -0 -1 -2 -2 -1
3 3 4 4 4 4 4 4 5 4 4 4 5 5 5 5 5 4 4 4 4 3 3 3 3 3 3 2 2 2 2 1 1 1 1 -0 0 1 1 0 -0 1 1 -0 -1 -1 -2
3 3 3 3 4 4 4 4 4 4 4 4 4 4 4 4 5 5 4 4 4 3 3 3 2 2 2 2 1 2 1 1 1 0 -1 -1 -1 -1 1 2 1 2 2 2 1 -0 0
2 2 3 3 3 3 3 4 4 4 4 4 4 3 3 4 4 4 4 4 3 3 3 3 2 2 1 1 1 1 1 0 0 0 -0 -1 -2 -2 -1 0 0 1 4 4 3 2 1
1 2 2 2 2 3 3 3 3 3 4 3 3 3 3 3 3 3 2 3 3 2 2 2 2 2 1 1 0 0 0 0 0 -0 -0 -1 -2 -3 -2 -2 -4 3 3 3 2 3 2
1 1 1 1 2 2 2 2 2 3 3 3 3 3 2 2 2 2 2 2 2 2 2 2 1 1 1 1 -1 -1 0 1 2 1 0 -2 -4 -4 -3 -4 -0 2 3 2 3 2 1
0 0 1 1 1 1 1 2 2 2 2 2 2 2 1 1 2 1 1 1 1 1 1 1 1 0 0 0 -1 -3 -1 1 1 1 1 -0 -4 -6 -6 -5 -5 2 2 1 -0 -1 -0
-1 -1 -1 -0 -0 -0 -0 0 1 1 1 1 1 1 1 0 1 1 1 1 0 0 -0 0 -0 -0 -0 -1 -2 -2 -2 -1 -1 0 1 -0 -4 -5 -6 -7 -3 2 1 -1 -2 -1 -1
-2 -2 -2 -2 -2 -1 -1 -1 -0 -0 -0 -0 0 -0 -0 0 0 0 0 0 -0 -0 -1 -1 -2 -1 -1 -2 -2 -2 -2 -1 -1 -1 -1 0 -1 -3 -7 -8 -6 1 0 -1 -1 -1 -2
-4 -4 -3 -2 -2 -3 -3 -2 -2 -2 -2 -1 -1 -1 -1 -1 -0 -0 -0 -0 -1 -1 -1 -2 -2 -2 -2 -2 -2 -2 -2 -2 -1 -2 -1 -2 -1 -0 -2 0 1 0 -1 -1 -2 -3 -3

GFSGBSN_700_temp_189.txt.gz
Temp
-0 -1 -1 -1 -2 -2 -2 -2 -2 -2 -2 -2 -2 -2 -1 -1 -1 -0 0 1 1 2 2 2 3 3 4 3 3 5 5 6 6 7 7 8 9 9 9 9 10 10 10 10 10 10 10
0 -0 -1 -1 -1 -2 -2 -2 -2 -2 -1 -1 -1 -1 -1 -1 -0 0 1 1 2 2 2 2 3 3 3 3 3 4 5 6 7 7 7 8 9 9 9 9 9 10 10 10 10 9 9
0 0 0 -1 -1 -2 -2 -1 -1 -1 -1 -1 -1 -1 -0 -0 0 1 1 1 2 2 2 3 3 4 3 4 4 5 5 6 6 7 7 8 8 8 9 9 9 9 9 9 9 9 9
1 0 -0 -0 -0 -1 -1 -1 -1 -1 -1 -1 -1 -0 -0 1 1 1 2 2 2 2 2 3 3 3 4 4 4 5 5 6 7 7 7 8 8 8 8 8 9 9 8 9 9 8 8
0 0 -0 -1 -0 -0 -0 -0 -0 -0 -0 -0 -0 0 1 1 2 2 2 2 2 2 2 3 3 4 4 4 5 5 5 6 7 7 7 7 7 7 8 8 8 8 8 8 8 8 8
1 1 0 -0 -0 -0 -0 0 0 0 0 0 0 1 1 2 2 2 2 2 3 3 3 3 4 4 4 4 5 5 5 5 6 6 6 6 7 7 7 8 8 8 7 8 7 8 8
1 1 1 0 0 0 -0 -0 0 -0 0 1 1 1 2 2 2 2 2 2 3 3 3 4 4 5 4 4 5 5 5 6 5 6 6 7 7 7 7 7 7 7 7 7 7 7 7
2 1 1 1 1 1 1 0 0 1 1 1 1 1 2 2 2 2 2 2 3 3 3 4 3 4 4 4 4 4 5 5 6 6 7 6 7 7 7 7 7 7 6 7 6 7 6
2 2 1 1 1 1 1 1 1 1 1 1 1 1 1 2 2 3 3 3 3 3 3 3 4 4 4 4 5 5 5 6 6 6 6 6 6 6 6 6 6 6 6 6 6 6 6
3 2 2 2 1 1 1 1 2 2 1 2 2 2 2 2 2 2 3 3 3 3 4 3 3 4 4 4 5 5 5 6 6 6 6 6 6 6 6 6 6 5 6 5 5 5 4
3 3 3 2 2 2 2 2 2 2 2 2 2 2 3 2 2 3 3 3 4 4 -2 3 4 4 4 4 5 5 5 5 5 6 6 6 5 5 5 5 5 5 5 4 4 4 4
3 3 3 3 2 2 2 2 2 2 2 2 2 3 3 3 3 3 3 4 4 4 2 3 4 4 4 4 4 5 5 5 5 5 5 5 5 5 5 4 4 4 4 4 4 3 -0
4 4 4 3 3 3 3 3 3 3 3 3 3 3 3 3 3 4 4 4 4 4 3 3 4 4 4 4 5 4 5 5 5 5 5 4 4 4 4 4 3 3 3 3 -1 -3 -2
4 4 4 4 4 3 3 3 3 3 3 4 3 3 3 3 3 3 4 4 4 4 4 3 3 4 4 4 4 4 4 4 4 4 4 4 4 3 3 3 3 2 2 2 -3 -5 -3
5 4 5 4 5 4 4 4 4 4 4 4 4 4 4 4 4 4 4 4 4 4 4 4 4 4 4 4 4 4 4 4 4 4 4 4 3 3 3 3 2 2 2 1 1 -3 -5
5 5 5 5 5 5 5 5 5 4 5 5 5 4 5 4 4 4 4 3 4 4 3 3 3 3 3 4 4 4 4 4 4 4 3 3 3 3 3 2 2 1 1 1 1 -4 -5
4 4 5 5 5 5 5 5 5 5 5 5 5 5 5 5 5 5 4 4 4 3 3 3 3 3 3 3 3 3 3 3 3 3 3 3 2 2 2 2 2 1 1 1 0 -1 -6
4 4 4 4 5 5 5 5 5 5 5 5 5 5 5 5 5 5 4 4 4 4 3 3 3 3 3 3 3 3 3 3 2 2 2 2 2 2 2 1 1 0 0 -0 -0 -2 -2
4 4 4 4 4 4 5 5 5 5 5 5 5 5 5 5 5 5 5 4 4 4 3 4 3 3 3 2 2 2 2 2 2 2 1 1 1 1 0 0 0 0 1 -0 -1 -1 -2
3 4 4 4 4 4 4 4 4 5 5 5 5 5 5 5 5 5 5 5 4 4 3 3 3 3 3 3 2 2 2 2 2 1 1 0 1 1 2 1 0 -0 0 -0 -1 -2 -0
3 3 3 3 3 3 3 3 4 4 4 4 4 5 5 5 5 5 5 4 4 4 4 4 3 3 3 2 2 2 2 1 2 1 1 0 1 1 2 1 0 1 1 -0 -1 -0 -1
2 2 3 3 3 3 3 3 3 4 3 4 4 4 4 4 5 4 4 4 4 3 3 3 3 3 2 3 2 2 2 2 1 1 0 -0 -0 0 2 2 1 1 1 2 2 0 -0
1 2 2 2 2 3 3 3 3 3 3 3 3 3 3 3 4 4 4 4 3 3 3 3 2 2 2 2 1 1 1 1 1 0 -0 -1 -2 -2 -0 -1 -1 1 5 4 3 3 2
1 1 1 1 2 2 2 2 2 3 3 3 3 3 3 3 3 2 2 2 3 3 3 3 2 2 1 1 0 0 0 0 0 0 0 -0 -2 -4 -3 -2 -5 3 4 4 4 4 4
0 0 0 1 1 1 1 2 2 2 2 2 2 2 2 2 2 2 2 2 2 2 2 2 1 1 0 0 -0 -1 -0 -0 1 0 -0 -1 -2 -4 -4 -4 -0 3 3 3 3 3 3
-1 -1 -1 -0 -0 -0 0 0 1 1 1 1 1 1 1 1 2 1 1 1 1 1 1 1 1 0 -0 -1 -1 -3 -1 0 0 0 1 -1 -4 -6 -6 -6 -6 2 3 2 1 0 2
-2 -2 -2 -2 -2 -1 -1 -1 -1 -1 -0 0 1 1 1 0 0 1 0 -0 -0 -0 -0 -0 -0 -1 -1 -1 -2 -3 -2 -2 -1 0 0 -0 -2 -5 -6 -6 -4 0 1 1 -1 1 0
-3 -3 -3 -2 -2 -3 -2 -2 -2 -2 -2 -1 -1 -0 -0 -0 -0 -0 -0 -0 -1 -1 -2 -2 -3 -2 -1 -2 -2 -2 -3 -2 -2 -1 -1 -0 -0 -3 -6 -7 -6 1 0 -0 1 -0 -1
-4 -4 -4 -4 -4 -4 -3 -3 -3 -3 -3 -3 -3 -2 -2 -2 -1 -1 -1 -1 -2 -2 -2 -3 -3 -4 -3 -3 -3 -3 -3 -3 -3 -3 -2 -2 -1 -0 -1 0 0 1 -0 -1 -1 -2 -3